TimeCDT,TemperatureF,Dew PointF,Humidity,Sea Level PressureIn,VisibilityMPH,Wind Direction,Wind SpeedMPH,Gust SpeedMPH,PrecipitationIn,Events,Conditions,WindDirDegrees,DateUTC
12:54 AM,28.4,15.8,59,29.99,10.0,West,11.5,-,N/A,,Clear,280,2013-03-19 05:54:00
1:54 AM,28.9,16.0,58,30.01,10.0,West,12.7,-,N/A,,Clear,280,2013-03-19 06:54:00
2:54 AM,28.0,16.0,61,30.02,10.0,WNW,10.4,-,N/A,,Clear,290,2013-03-19 07:54:00
3:54 AM,27.0,17.1,66,30.03,10.0,WNW,15.0,-,N/A,,Clear,290,2013-03-19 08:54:00
4:54 AM,27.0,17.1,66,30.05,10.0,WNW,10.4,-,N/A,,Clear,300,2013-03-19 09:54:00
5:54 AM,26.1,15.1,63,30.06,10.0,NW,16.1,-,N/A,,Clear,310,2013-03-19 10:54:00
6:54 AM,25.0,12.9,60,30.10,10.0,NW,13.8,-,N/A,,Clear,310,2013-03-19 11:54:00
7:54 AM,25.0,12.9,60,30.12,10.0,NW,9.2,-,N/A,,Clear,310,2013-03-19 12:54:00
8:54 AM,27.0,10.9,51,30.15,10.0,NW,19.6,24.2,N/A,,Clear,310,2013-03-19 13:54:00
9:54 AM,28.9,10.9,47,30.18,10.0,WNW,18.4,24.2,N/A,,Clear,290,2013-03-19 14:54:00
10:54 AM,30.9,12.0,46,30.20,10.0,West,13.8,-,N/A,,Clear,280,2013-03-19 15:54:00
11:54 AM,34.0,12.0,40,30.21,10.0,NW,13.8,-,N/A,,Clear,310,2013-03-19 16:54:00
12:54 PM,37.0,12.0,36,30.22,10.0,WNW,15.0,19.6,N/A,,Clear,300,2013-03-19 17:54:00
1:54 PM,39.0,12.9,34,30.21,10.0,WNW,11.5,-,N/A,,Clear,290,2013-03-19 18:54:00
2:54 PM,39.9,12.9,33,30.19,10.0,WNW,11.5,-,N/A,,Clear,290,2013-03-19 19:54:00
3:54 PM,41.0,10.9,29,30.19,10.0,WNW,9.2,17.3,N/A,,Clear,290,2013-03-19 20:54:00
4:54 PM,43.0,10.9,27,30.19,10.0,WNW,11.5,-,N/A,,Clear,290,2013-03-19 21:54:00
5:54 PM,42.1,12.9,31,30.19,10.0,West,9.2,-,N/A,,Clear,260,2013-03-19 22:54:00
6:54 PM,39.2,14.0,36,30.17,10.0,West,6.9,-,N/A,,Clear,260,2013-03-19 23:54:00
7:54 PM,35.1,18.0,50,30.19,10.0,SW,5.8,-,N/A,,Clear,230,2013-03-20 00:54:00
8:54 PM,34.0,17.1,50,30.19,10.0,WSW,8.1,-,N/A,,Clear,240,2013-03-20 01:54:00
9:54 PM,32.0,17.1,54,30.19,10.0,WSW,6.9,-,N/A,,Clear,240,2013-03-20 02:54:00
10:54 PM,30.9,19.0,61,30.19,10.0,SW,6.9,-,N/A,,Clear,230,2013-03-20 03:54:00
11:54 PM,30.9,19.0,61,30.18,10.0,WSW,8.1,-,N/A,,Clear,240,2013-03-20 04:54:00